Regional Weather Roundup
Issued by NWS

Home | Current Version | Previous Version | Text Only | Print | Product List | Glossary On
Versions: 1 2 3 4 5 6 7 8 9 10 11 12 13 14 15 16 17 18 19 20 21 22 23 24 25 26 27 28 29 30 31 32 33 34 35 36 37 38 39 40 41 42 43 44 45 46 47 48 49 50
620
ASUS44 KFWD 231415
RWRTX
NORTH TEXAS HOURLY WEATHER ROUNDUP
NATIONAL WEATHER SERVICE FORT WORTH TX
900 AM CDT WED MAY 23 2018

NOTE: "FAIR" INDICATES FEW OR NO CLOUDS BELOW 12,000 FEET WITH NO
SIGNIFICANT WEATHER AND/OR OBSTRUCTIONS TO VISIBILITY.

TXZ118-119-231500-
DALLAS/FORT WORTH METROPLEX

CITY           SKY/WX    TMP DP  RH WIND       PRES   REMARKS
DFW AIRPORT    FAIR      78  70  76 SW8       30.05R
DALLAS LOVE    FAIR      79  70  74 SW7       30.06R
FTW MEACHAM    FAIR      80  71  74 S7        30.05R
DAL-EXECUTIVE  FAIR      78  70  76 VRB3      30.06R
FTW-ALLIANCE   PTSUNNY   78  69  73 S6        30.06R
FTW-SPINKS     SUNNY     77  70  78 S7        30.08R
ARLINGTON      FAIR      76  71  85 S7        30.06R
GRAND PRAIRIE  SUNNY     77  66  69 SW6       30.08R
ADDISON        SUNNY     79  68  69 SW7       30.07R
MESQUITE       SUNNY     75  70  83 S3        30.07R
LANCASTER      FAIR      75  70  83 S3        30.07R
$$

TXZ091>094-102>105-117-120-121-131>134-231500-
NORTH CENTRAL TEXAS

CITY           SKY/WX    TMP DP  RH WIND       PRES   REMARKS
SHRMAN/DENISON FAIR      78  69  73 S6        30.08R
GAINESVILLE    FAIR      74  69  83 CALM      30.09R
BOWIE          FAIR      74  69  84 S3        30.07S
BRIDGEPORT     FAIR      76  67  73 S6        30.08R
DECATUR        FAIR      76  68  75 CALM      30.07R
DENTON         FAIR      77  69  76 VRB3      30.06R
MCKINNEY       FAIR      77  70  79 S6        30.07R
BONHAM         FAIR      75  69  81 CALM      30.08R
GREENVILLE     FAIR      81  70  69 S7        30.09R
ROCKWALL       FAIR      77  71  83 S7        30.08R
TERRELL        FAIR      77  69  76 SW7       30.07R
WAXAHACHIE     FAIR      75  72  90 SW7       30.08R
CLEBURNE       FAIR      75  72  88 S6        30.08R
GRANBURY       FAIR      78  69  72 S6        30.07R
$$

TXZ083>090-098>101-113>116-127>130-139>142-154-155-231500-
WESTERN NORTH TEXAS

CITY           SKY/WX    TMP DP  RH WIND       PRES   REMARKS
WICHITA FALLS  FAIR      75  68  78 SE9       30.06R
WF-KICKAPOO    FAIR      76  68  78 SE9       30.09R
VERNON         PTSUNNY   77  67  72 S9        30.07R
ABILENE        FAIR      74  65  73 S14       30.06R
ABILENE-DYESS  FAIR      77  60  54 S15       30.05R
GRAHAM           N/A     77  66  69 S6        30.05R
BRECKENRIDGE   FAIR      79  64  59 S12       30.06R HAZE
CISCO          FAIR      73  66  78 S13       30.07R
EASTLAND       FAIR      74  66  74 SE9       30.07R
RANGER         FAIR      74  66  76 S9        30.07S
MINERAL WELLS  FAIR      74  68  81 SE6       30.05R
STEPHENVILLE   FAIR      73  67  82 CALM      30.10R
COMANCHE       FAIR      75  68  80 S8        30.07S
BROWNWOOD      FAIR      73  66  78 S9        30.07R
COLEMAN        FAIR      74  64  70 S10       30.08R
BRADY          PTSUNNY   72  64  78 S12G17    30.08R
$$

TXZ143>147-156>162-174-175-231500-
CENTRAL TEXAS

CITY           SKY/WX    TMP DP  RH WIND       PRES   REMARKS
WACO           CLOUDY    74  70  87 SW7       30.07R
WACO-TSTC      CLOUDY    73  73 100 S7        30.07R FOG
WACO-MCGREGOR  PTSUNNY   76  71  85 S8        30.07S
HILLSBORO      FAIR      76  73  90 S8        30.07R
CORSICANA      FAIR      76  70  82 S6        30.08R
MEXIA          PTSUNNY   74  70  86 S5        30.07R
HEARNE         FAIR      76  74  92 CALM      30.07R
CAMERON        PTSUNNY   76  72  87 CALM      30.06S
TEMPLE         CLOUDY    75  72  90 S6        30.07R
KILLEEN        PTSUNNY   75  69  79 S9        30.05R
KILLEEN-SKYLRK FAIR      75  70  83 S5        30.06R
FORT HOOD      FAIR      75  68  78 S8        30.03R
GATESVILLE     PTSUNNY   75  68  78 S7        30.08R
HAMILTON       FAIR      73  71  92 SW13      30.08R
LAMPASAS       PTSUNNY   73  69  85 SW3       30.06R
$$

TXZ095>097-106>112-122>126-135>138-148>153-164>167-231500-
EAST TEXAS

CITY           SKY/WX    TMP DP  RH WIND       PRES   REMARKS
PARIS          FAIR      76  70  82 CALM      30.09R
SULPHUR SPRNGS FAIR      78  69  73 SW8       30.10R
MOUNT PLEASANT FAIR      76  70  82 CALM      30.10R
GILMER         FAIR      77  70  81 CALM      30.08R
MINEOLA        FAIR      79  70  73 SW6       30.08R
TYLER          FAIR      79  69  71 SW3       30.08R
LONGVIEW       FAIR      79  73  82 S6        30.07R
MARSHALL       FAIR      75  69  80 CALM      30.10R
ATHENS         FAIR      77  70  78 CALM      30.07R
PALESTINE      FAIR      78  72  81 S3        30.08S
JACKSONVILLE   FAIR      77  72  83 CALM      30.10R
HENDERSON      FAIR      77  71  83 CALM      30.09R
CENTER         FAIR      75  71  87 CALM      30.09R
NACOGDOCHES      N/A     77  71  82 S3        30.08R
LUFKIN         FAIR      78  72  81 E5        30.07R
$$

SUPPLEMENTAL OBSERVATIONS (NWS FORT WORTH AREA)

CITY           SKY/WX    TMP DP  RH WIND       PRES   REMARKS
DENISON DAM      N/A     75  68  78 E3          N/A
CADDO GRASSLND   N/A     77  70  78 S3          N/A
LBJ GRASSLAND    N/A     77  68  73 S5          N/A
POSSUM KINGDOM   N/A     79  68  69 S8          N/A
GRANBURY         N/A     79  68  69 S8          N/A
COMANCHE         N/A     77  66  69 S8          N/A
MCGREGOR         N/A     75  70  83 S6          N/A
TEMPLE           N/A     73  68  83 S5          N/A
LAKE LIMESTONE   N/A     79  73  83 S5          N/A
ATHENS           N/A     81  70  69 S5          N/A
PALESTINE        N/A     81  73  78 CALM        N/A
$$

SUPPLEMENTAL OBSERVATIONS (NWS NORMAN AREA)

CITY           SKY/WX    TMP DP  RH WIND       PRES   REMARKS
GOODLETT         N/A     75  65  71 S7        30.07R
ODELL            N/A     76  67  73 S10       30.08R
CROWELL          N/A     75  67  76 S7        30.08R
KNOX CITY        N/A     76  65  69 S7        30.07S
SEYMOUR          N/A     76  66  73 S6        30.07R
MILLERS CREEK    N/A     77  66  69 S8          N/A
$$

SUPPLEMENTAL OBSERVATIONS (NWS SAN ANGELO AREA)

CITY           SKY/WX    TMP DP  RH WIND       PRES   REMARKS
WEINERT          N/A     76  65  69 S10       30.07S
HASKELL          N/A     76  62  61 S13       30.07R
THROCKMORTON     N/A     77  67  72 S7        30.08R
STAMFORD         N/A     76  65  69 S8        30.08R
CLYDE            N/A     74  64  71 S13       30.09R
HAMBY            N/A     75  63  64 S12         N/A
IVIE RESERVOIR   N/A     75  64  69 S13         N/A
COLORADO BEND    N/A     75  66  73 S9          N/A
$$

SUPPLEMENTAL OBSERVATIONS (NWS SHREVEPORT AREA)

CITY           SKY/WX    TMP DP  RH WIND       PRES   REMARKS
TEXARKANA        N/A     79  73  83 SE1         N/A
LINDEN           N/A     73  70  88 E2          N/A
CADDO LAKE       N/A     81  72  74 CALM        N/A
LUFKIN           N/A     81  73  78 MISG        N/A
N SABINE NF      N/A     82  73  74 MISG        N/A
$$

SUPPLEMENTAL OBSERVATIONS ARE A COLLECTION OF AUTOMATED INSTRUMENTS
THAT ARE MAINTAINED BY A VARIETY OF FEDERAL AND STATE AGENCIES.
CERTAIN ELEMENTS...SUCH AS HUMIDITY VALUES AND SUSTAINED WIND
SPEEDS...MAY BE APPROXIMATED.





USA.gov is the U.S. government's official web portal to all federal, state and local government web resources and services.